Simultaneous Nadir Overpasses (SNOs) Predictions

Prediction of SNOs between METOP-A and TERRA Satellite Orbit:

Table of predicted SNOs for the next 14.0 days since TLE Epoch: 1/24/2015
Index Date (METOP-A) Time (METOP-A) Lat,Lon (METOP-A) SZA (METOP-A ) Date (TERRA) Time (TERRA) Lat,Lon (TERRA) SZA (TERRA ) Distance(km) Time Diff (sec)
1 01/24/2015 08:56:53 81.31, 92.93 102.88 01/24/2015 08:57:06 81.31, 92.93 102.88 0.50 13
2 01/24/2015 09:47:32 -81.32, -99.16 77.07 01/24/2015 09:46:32 -81.32, -99.15 77.10 0.35 60
3 01/27/2015 04:31:17 81.32, 159.78 102.22 01/27/2015 04:31:20 81.32, 159.59 102.20 3.21 3
4 01/27/2015 05:21:57 -81.32, -32.69 77.78 01/27/2015 05:20:47 -81.31, -32.84 77.83 2.59 70
5 01/29/2015 23:15:02 -81.30, 58.05 78.62 01/29/2015 23:16:08 -81.30, 58.02 78.60 0.98 66
6 01/
